Lapse_Rate
6.8 6.8 7.0 6.0 5.8 5.9 5.1 5.6 5.6 5.2 5.9 5.9 5.8 6.1 6.5 6.6 6.7 6.7 7.0 7.5 7.2 7.3 7.5 7.4 7.2 7.4 7.2 7.2 7.0 6.8 6.6 6.5 6.5 6.4 6.1 6.3 6.3 6.0 6.5 6.1 6.0 6.0 6.2
6.8 6.4 6.4 5.7 5.8 5.7 5.6 5.8 6.0 5.9 5.9 6.2 6.3 6.4 6.5 6.9 6.8 6.6 6.8 6.7 6.9 7.0 7.2 7.3 7.2 7.3 7.2 7.2 7.1 7.1 6.9 6.7 6.5 6.3 6.2 6.1 6.2 6.3 6.0 6.4 6.1 6.0 5.9
6.7 6.6 6.3 5.9 5.8 6.0 6.0 6.1 6.0 6.0 6.0 6.3 6.6 6.6 6.6 6.6 6.4 6.5 6.4 6.2 6.3 6.6 6.6 6.7 6.9 7.1 6.9 6.9 6.9 7.0 6.9 6.7 6.5 6.4 6.3 6.2 6.0 6.1 6.2 6.1 6.4 6.2 6.0
6.1 6.0 6.1 6.3 6.3 6.3 6.4 6.6 6.7 6.6 6.7 6.8 6.7 6.5 6.5 6.4 6.4 6.3 6.3 6.1 6.0 5.7 5.9 6.3 6.4 6.6 6.5 6.4 6.6 6.7 6.6 6.5 6.5 6.4 6.1 6.1 6.2 5.9 6.0 6.0 6.0 6.4 6.2
5.7 5.8 6.4 6.4 6.2 6.3 6.5 6.9 7.0 6.9 6.8 6.8 6.7 6.7 6.7 6.8 6.7 6.6 6.2 6.1 5.9 5.8 6.0 6.1 6.1 6.3 6.2 6.3 6.2 6.0 5.8 5.8 6.1 6.2 6.1 6.1 5.7 5.8 5.6 5.6 5.6 5.6 6.0
5.8 6.0 6.2 6.1 6.2 6.3 6.4 6.3 6.6 6.8 6.8 6.7 6.9 6.9 7.0 7.0 6.9 6.5 6.5 5.9 6.2 6.0 5.7 5.6 5.6 5.7 5.8 5.6 5.7 5.1 5.4 5.5 5.0 5.0 5.1 5.2 5.3 5.1 4.9 4.9 5.2 5.3 5.4
6.1 6.0 5.9 6.1 6.6 6.5 6.3 6.4 6.6 6.5 6.8 6.8 6.8 7.0 6.9 6.7 6.6 6.0 6.0 5.6 5.1 4.9 4.7 4.7 4.8 4.5 4.4 4.6 4.4 3.8 3.8 3.8 3.5 3.4 3.5 3.6 3.9 4.2 4.4 4.1 4.4 4.7 5.0
5.8 5.8 6.0 5.9 6.0 6.3 6.3 6.1 6.0 6.1 6.4 6.5 6.4 6.5 6.5 6.6 6.5 6.3 5.7 5.3 4.7 4.5 4.1 3.9 3.7 3.4 3.2 3.2 3.4 3.2 2.8 2.8 2.9 2.9 3.0 3.1 3.2 3.2 3.5 3.9 3.7 4.1 4.3
5.7 5.7 5.9 6.3 6.2 6.0 6.0 5.9 5.8 5.9 6.0 6.1 6.0 5.9 5.8 6.0 5.9 5.5 5.4 5.1 4.7 4.4 4.3 4.0 3.5 2.9 2.8 3.1 3.6 3.0 3.1 2.9 3.0 3.0 2.9 2.9 3.0 3.0 3.0 3.1 3.7 3.6 4.0
5.8 5.8 5.8 6.0 6.0 6.0 5.9 5.8 5.9 5.9 6.0 5.8 5.7 5.6 5.0 4.8 4.7 4.9 4.5 4.3 4.1 3.8 3.6 3.6 3.5 3.7 3.8 3.9 4.1 4.3 3.5 3.5 3.5 3.4 3.4 3.3 3.0 2.9 2.8 2.8 2.9 3.4 3.6
5.5 6.0 6.1 6.0 5.7 5.6 5.7 5.7 5.7 5.8 5.7 5.4 5.1 4.9 4.7 4.3 3.8 3.6 3.8 3.8 3.8 3.6 3.8 3.8 4.2 4.8 5.2 5.5 5.5 5.1 4.8 4.7 5.3 5.4 5.3 5.2 4.5 3.7 3.2 2.9 3.0 3.0 3.4
5.3 5.1 5.4 5.4 5.4 5.4 5.5 5.6 5.5 5.4 5.2 5.0 4.6 4.6 4.0 3.9 3.7 3.5 3.3 3.4 3.7 4.6 5.2 5.6 6.0 6.7 6.6 6.2 5.9 5.6 5.5 5.4 5.3 5.4 5.8 6.0 5.9 5.6 4.7 3.8 3.4 3.2 3.4
5.5 5.4 5.5 5.4 5.5 5.7 5.7 5.6 5.6 5.2 4.9 4.9 4.7 4.4 4.1 3.9 3.9 3.6 3.7 4.2 4.6 5.3 5.7 6.6 7.1 7.3 6.9 6.7 6.0 5.7 5.7 5.8 5.7 5.8 5.9 5.9 6.3 6.2 6.0 5.3 4.6 4.0 3.5
5.5 5.4 5.6 5.7 5.9 5.8 5.7 5.5 5.3 5.0 4.8 4.8 4.3 4.3 4.1 4.2 4.3 4.1 4.7 5.1 5.7 5.9 6.4 7.1 7.4 7.1 6.6 6.3 5.7 5.8 5.8 5.9 5.9 6.1 6.2 6.2 6.2 6.3 6.2 6.1 5.5 5.2 4.7
6.0 5.8 5.8 5.8 5.7 5.6 5.3 5.1 5.1 4.8 4.8 4.8 4.5 4.3 4.3 4.3 4.7 5.1 5.7 6.1 6.3 6.2 6.5 7.0 6.9 6.7 6.3 6.2 6.2 6.1 6.0 6.3 6.4 6.4 6.6 6.4 6.4 6.4 6.4 6.2 6.2 5.8 5.5
5.8 5.7 5.7 5.7 5.5 5.4 5.1 5.0 5.0 4.9 4.5 4.4 4.4 4.4 4.5 4.7 5.2 5.7 6.1 6.6 6.7 6.7 6.4 6.7 6.7 6.6 6.3 6.4 6.3 6.4 6.5 6.4 6.6 6.6 6.8 6.8 6.8 6.6 6.7 6.5 6.4 6.2 5.9
5.7 5.6 5.6 5.4 5.2 5.2 5.0 4.9 4.7 4.6 4.7 4.7 4.5 4.3 4.4 4.9 5.5 6.2 6.7 7.1 7.2 7.0 6.8 6.7 6.7 6.7 6.5 6.4 6.4 6.6 6.6 6.8 7.1 7.0 7.0 6.9 6.8 6.9 7.0 6.8 6.5 6.5 6.3
5.4 5.5 5.3 5.2 5.2 5.1 4.8 4.9 4.7 4.9 4.8 4.7 4.5 4.4 4.6 5.2 6.0 6.7 7.0 7.3 7.3 7.2 6.9 6.6 6.7 6.6 6.3 6.3 6.4 6.6 6.8 6.7 6.6 6.6 6.4 6.3 6.2 6.2 6.6 6.7 6.5 6.2 6.4
5.3 5.1 5.1 5.1 5.1 5.0 4.5 4.6 4.6 4.6 4.6 4.4 4.5 4.6 5.3 6.2 6.7 7.0 7.3 7.5 7.3 7.1 6.8 6.5 6.4 6.4 6.2 6.3 6.5 6.6 6.2 6.0 5.6 5.4 5.3 5.3 5.1 5.4 5.8 6.1 6.1 6.1 6.3
4.8 4.9 5.1 5.2 5.3 4.7 4.4 4.6 4.5 4.5 4.3 4.3 4.6 5.1 5.8 6.4 7.0 7.2 7.5 7.2 7.1 6.6 6.4 6.4 6.4 6.3 6.4 6.5 6.4 6.2 5.9 5.7 5.4 5.3 5.1 4.8 5.1 5.2 5.9 6.1 6.4 6.5 6.4
4.5 4.5 5.4 5.0 4.8 4.6 4.7 4.7 4.4 4.3 4.2 4.3 4.8 5.9 6.5 6.7 6.9 7.3 7.3 7.1 6.9 6.5 6.4 6.3 6.3 6.3 6.5 6.5 6.4 6.0 5.4 5.1 5.3 5.0 4.9 5.8 5.9 6.0 6.4 6.6 6.7 6.5 6.5
4.3 4.9 4.7 4.5 4.6 4.5 4.7 4.6 4.4 4.4 4.5 5.3 5.7 6.4 6.8 6.8 6.9 7.2 6.8 6.8 6.6 6.4 6.3 6.0 6.2 6.3 6.6 6.5 6.1 5.7 5.3 5.0 5.2 5.8 5.4 6.5 6.5 6.9 7.1 7.4 7.5 7.3 6.8
4.8 4.8 4.6 4.5 4.6 4.4 4.8 4.9 4.6 4.8 5.2 5.8 6.1 6.7 6.9 7.0 7.2 7.0 6.8 6.4 6.1 6.0 6.0 6.0 6.3 6.5 6.6 6.2 5.6 5.8 5.7 5.3 5.5 5.9 6.1 6.8 7.1 7.4 7.5 7.8 7.7 7.1 7.0
4.8 4.4 4.5 4.9 4.8 4.5 5.1 5.2 5.1 4.8 5.9 6.1 6.5 6.8 7.1 7.2 7.2 7.0 6.8 6.5 6.2 6.1 6.2 6.1 6.2 6.5 6.5 6.1 5.8 5.7 5.4 5.6 5.9 6.2 6.3 6.9 7.3 7.5 7.8 8.0 7.9 7.5 7.3
4.6 4.8 5.2 5.1 4.9 4.6 5.2 5.3 5.5 5.7 6.3 6.4 6.7 7.0 7.2 7.4 7.1 7.0 6.7 6.5 6.4 6.3 6.3 6.4 6.4 6.5 6.4 6.0 5.7 5.8 5.5 5.5 6.2 6.5 6.8 6.9 7.5 7.6 7.7 7.9 7.8 7.7 7.4
5.1 5.3 5.2 4.8 5.0 5.2 5.4 5.8 6.0 6.0 6.2 6.6 6.9 7.1 7.4 7.5 7.3 7.1 6.9 6.5 6.5 6.4 6.5 6.7 6.5 6.6 6.4 6.2 6.0 6.0 6.0 6.0 6.2 6.7 6.8 7.0 7.3 7.4 7.8 7.8 7.7 7.7 7.6
Wind_Speed
6 8 9 8 12 16 14 14 13 12 11 13 16 14 13 15 18 17 8 5 5 5 7 9 9 12 14 16 19 20 20 20 19 18 18 18 18 17 18 15 12 11 11
8 10 12 11 12 15 12 7 7 8 9 12 11 16 13 14 18 16 14 7 5 6 8 9 10 12 15 14 16 18 20 21 20 19 19 19 18 19 20 20 18 14 12
10 11 9 8 8 9 8 10 11 12 9 10 7 11 12 14 16 15 15 18 9 8 8 6 8 13 19 12 16 17 19 18 18 20 20 19 19 19 20 21 23 22 17
14 12 8 8 6 3 1 7 6 4 5 4 4 5 7 14 17 13 15 15 6 3 6 6 10 16 15 11 18 19 21 16 17 20 18 20 20 21 22 22 21 23 24
8 9 7 6 6 4 7 6 4 3 4 5 6 5 6 5 11 16 11 16 1 5 8 11 17 19 12 20 21 23 22 16 20 19 19 20 20 22 24 24 23 22 23
5 4 9 6 4 4 4 4 2 3 3 4 7 7 5 4 12 11 11 9 12 12 11 10 13 11 18 19 22 23 21 23 18 19 21 22 22 21 22 24 24 23 23
5 3 5 4 3 4 3 1 1 3 3 4 4 5 4 7 7 5 11 11 13 13 16 15 11 11 11 16 17 25 19 13 16 18 22 22 21 20 21 21 25 24 23
7 7 6 5 7 3 4 3 3 2 2 4 4 4 5 6 4 8 4 5 6 10 9 13 16 9 9 11 16 24 13 11 14 18 19 21 22 23 21 20 22 25 24
7 4 4 3 2 3 3 3 3 4 2 3 4 3 5 4 7 3 5 5 6 4 10 11 13 13 10 11 13 17 13 6 10 16 20 20 21 23 21 21 21 23 25
6 4 1 1 1 2 3 3 4 1 2 4 3 3 4 4 5 7 1 4 6 7 6 8 11 13 13 15 16 16 8 5 9 11 16 20 20 23 23 22 21 19 23
10 10 9 4 1 2 4 5 5 4 1 2 3 3 3 4 4 3 5 4 5 5 5 8 13 14 16 14 15 18 8 9 6 9 15 21 23 24 24 22 22 21 19
2 8 12 11 10 7 5 5 6 3 3 3 4 2 3 2 4 5 4 5 7 6 4 7 8 13 16 16 17 20 9 11 11 17 20 22 24 24 24 25 23 22 20
3 5 9 7 6 9 10 10 5 5 4 4 2 3 2 3 7 3 3 4 4 6 5 4 8 13 15 18 16 15 18 17 14 14 21 21 21 23 26 26 26 25 23
3 5 4 5 8 10 11 11 5 5 4 3 4 3 4 4 2 2 2 2 7 8 6 10 4 11 13 17 15 19 17 20 19 20 20 21 26 28 29 29 29 26 25
1 4 6 5 8 9 10 10 5 6 4 4 3 4 3 3 2 2 3 3 4 9 11 8 7 9 9 16 16 19 17 18 23 22 24 26 29 31 30 29 30 27 25
2 3 4 5 6 7 9 8 4 5 6 3 4 3 3 2 3 3 3 4 6 8 10 6 6 6 10 14 17 20 20 25 24 25 25 29 30 31 31 29 26 24 22
2 3 4 5 6 6 5 5 7 7 5 5 5 5 5 4 3 3 4 4 4 5 9 9 8 6 8 7 13 19 20 21 22 22 23 26 26 24 24 26 22 22 21
2 3 4 5 6 4 6 4 5 5 5 4 4 4 5 5 5 5 4 6 6 8 8 13 9 8 6 8 11 9 14 18 20 21 26 27 28 24 19 16 18 21 21
2 3 4 5 6 3 4 3 5 5 5 5 5 5 5 5 5 3 5 5 6 7 7 8 10 7 7 7 10 9 9 12 17 23 23 23 19 21 18 24 27 22 25
2 4 5 5 2 4 4 5 4 3 4 5 6 5 4 4 5 4 4 4 6 5 7 8 9 9 8 8 6 8 7 8 7 16 19 20 19 23 19 23 27 28 24
3 5 5 6 1 2 3 3 4 4 6 6 7 6 5 3 3 2 3 4 4 4 6 8 9 9 8 8 8 6 8 9 9 7 8 4 7 11 14 16 20 25 25
5 4 5 6 2 2 10 8 4 3 5 6 6 5 5 8 2 8 5 6 6 5 8 8 9 10 11 9 6 7 8 9 10 7 5 9 7 6 8 10 12 8 4
3 5 6 6 3 4 11 9 6 1 3 6 5 4 4 5 8 5 9 13 13 18 11 10 11 9 9 6 8 10 10 9 10 10 9 10 4 5 9 13 14 6 13
4 4 5 6 4 2 13 11 6 3 4 6 5 4 4 3 6 4 4 6 8 9 10 9 6 6 7 10 9 10 12 11 11 10 8 8 3 5 6 12 17 16 17
3 3 4 6 4 5 11 11 7 3 3 5 5 6 4 3 6 7 5 7 9 9 17 21 25 24 23 24 21 8 8 8 9 9 8 4 4 5 7 6 10 17 17
4 4 2 3 5 7 12 12 7 2 1 3 5 5 7 6 4 6 3 4 7 8 9 11 10 14 17 16 17 7 5 8 8 8 3 3 4 2 3 3 2 9 12
Wind_Direction
27 55 69 18 41 53 45 30 22 339 328 358 349 360 356 354 333 331 342 93 80 75 66 56 35 25 9 4 1 358 355 352 351 350 348 345 350 350 347 319 298 294 289
16 24 70 61 50 43 27 7 358 342 353 353 356 349 347 344 339 327 352 349 146 101 76 60 36 22 5 357 357 353 350 346 346 344 343 339 337 342 342 340 337 297 287
76 82 78 69 52 34 12 16 4 1 348 348 342 331 326 348 332 325 340 310 144 140 113 90 29 9 356 354 349 348 345 342 344 342 340 337 337 339 334 331 331 332 314
86 83 76 67 38 321 20 35 15 355 337 332 334 305 3 349 316 322 314 333 36 45 164 148 36 5 359 353 341 339 336 336 341 334 338 339 339 336 332 329 323 319 318
101 110 110 95 354 340 45 47 13 345 341 334 325 340 352 318 320 325 313 310 317 30 14 6 9 359 4 345 341 335 328 334 333 333 345 336 329 328 325 322 318 314 312
149 153 101 90 328 24 46 36 4 345 336 338 337 332 323 335 311 297 275 336 27 12 8 29 3 3 351 346 341 333 338 328 337 337 332 330 325 321 321 319 317 313 310
142 51 75 116 123 18 15 296 41 345 338 342 348 321 331 291 338 345 5 354 345 12 10 354 6 352 360 346 345 333 339 335 333 329 327 324 318 316 318 318 316 313 311
131 116 55 5 41 16 323 358 17 313 331 7 319 323 325 317 292 342 345 342 354 350 338 336 326 333 5 19 356 319 342 325 331 331 331 327 323 321 316 315 316 310 309
133 117 148 97 6 349 349 346 321 310 345 318 327 314 315 299 324 319 338 332 346 343 330 356 343 349 355 348 333 308 332 300 339 326 320 323 320 317 319 322 317 313 313
159 208 176 106 357 334 302 278 307 318 307 286 303 305 310 309 311 320 312 333 336 338 319 340 346 347 331 319 300 297 271 267 287 299 313 315 315 313 315 315 317 317 313
189 214 217 206 251 294 301 301 285 269 281 302 310 316 305 308 309 326 314 317 310 302 334 358 337 320 318 315 313 306 265 276 299 304 308 308 308 303 304 308 308 311 316
36 44 41 29 3 346 337 330 321 331 309 306 296 303 288 314 317 310 302 311 308 312 326 324 316 322 317 319 317 323 331 321 294 304 310 310 304 300 299 301 301 304 311
39 35 35 13 354 332 322 313 305 269 251 255 314 279 267 248 258 273 301 292 293 301 301 293 292 302 306 307 303 321 324 315 317 314 309 304 300 300 300 296 296 296 297
35 27 356 351 336 330 325 318 309 296 260 238 270 270 261 267 277 266 305 321 303 292 301 293 271 288 297 290 334 326 325 315 311 311 307 305 296 290 286 283 287 287 290
307 49 4 347 333 329 324 308 294 290 328 357 321 292 275 281 283 291 277 266 263 298 297 291 295 282 306 339 327 320 315 314 312 307 299 295 292 288 285 283 273 277 283
28 329 336 331 322 308 292 294 335 344 346 328 301 283 286 343 331 292 279 284 291 282 293 305 308 327 344 332 320 320 316 313 307 300 295 288 285 282 281 278 268 272 279
285 332 330 327 306 292 1 359 343 323 336 356 4 353 350 324 285 304 291 299 316 322 312 310 310 327 338 320 317 309 305 300 293 293 297 295 295 297 292 271 253 262 272
302 322 321 299 294 344 354 338 314 315 342 346 342 340 313 315 328 344 334 345 342 331 315 311 318 321 319 309 297 296 294 300 294 297 301 293 290 298 273 253 248 255 267
319 314 305 293 292 25 324 343 326 340 326 339 318 306 313 348 331 349 17 343 328 318 318 317 313 316 312 309 308 302 301 298 303 299 302 301 295 285 276 272 268 260 260
331 297 290 280 342 11 343 329 304 323 312 312 320 331 332 325 32 352 329 324 307 317 318 311 306 306 306 303 300 307 314 315 303 309 301 300 324 316 310 279 263 255 259
281 267 272 277 162 210 264 54 32 2 347 337 318 321 341 23 256 230 273 269 317 311 304 299 297 299 300 309 312 320 318 309 305 305 299 300 304 306 308 313 295 262 262
272 290 292 285 217 271 131 116 88 17 331 320 298 334 344 318 27 209 298 352 293 275 285 285 285 289 295 315 312 317 314 312 312 297 313 298 284 280 280 313 274 248 289
296 280 274 286 262 117 146 138 132 233 326 285 302 316 321 316 56 28 354 337 315 300 290 280 277 289 293 303 314 311 306 300 297 297 296 294 291 281 289 280 227 251 230
253 291 291 286 241 193 160 159 169 245 268 296 299 319 303 325 88 35 337 314 306 307 299 300 320 315 304 304 294 288 287 288 287 286 282 284 279 285 282 271 273 267 235
275 271 279 277 229 132 162 160 181 235 297 308 320 298 309 305 81 12 341 310 306 306 307 331 324 314 309 299 295 288 282 273 281 289 290 278 279 281 290 276 260 265 265
274 270 335 33 58 126 178 185 191 178 312 292 283 323 82 74 31 332 299 297 301 302 327 312 307 306 308 304 310 324 312 318 311 304 278 316 298 286 312 347 327 312 303